Simultaneous Nadir Overpasses (SNOs) Predictions

Prediction of SNOs between METOP-B and TERRA Satellite Orbit:

Table of predicted SNOs for the next 14.0 days since TLE Epoch: 9/16/2014
Index Date (METOP-B) Time (METOP-B) Lat,Lon (METOP-B) SZA (METOP-B ) Date (TERRA) Time (TERRA) Lat,Lon (TERRA) SZA (TERRA ) Distance(km) Time Diff (sec)
1 09/18/2014 08:06:45 -81.34, -74.10 97.54 09/18/2014 08:07:41 -81.33, -74.20 97.53 1.72 56
2 09/18/2014 08:57:25 81.34, 93.49 82.51 09/18/2014 08:57:07 81.34, 93.55 82.50 1.01 18
3 09/21/2014 03:41:05 -81.34, -7.56 96.41 09/21/2014 03:41:53 -81.34, -7.54 96.39 0.70 48
4 09/21/2014 04:31:45 81.34, 160.04 83.64 09/21/2014 04:31:19 81.35, 160.17 83.64 2.31 26
5 09/23/2014 23:15:24 -81.34, 58.93 95.29 09/23/2014 23:16:04 -81.34, 58.90 95.27 0.55 40
6 09/
